Flag for Spain Weather past 2 weeks in Bilbao, Spain

54 °F

Partly sunny.

Feels Like: 54 °F
Forecast: 44 / 58 °F
Wind: 2 mph from North

Location: Bilbao / Sondica

Current Time: Nov 28, 2015 at 12:19:10 PM

Latest Report: Nov 28, 2015 at 12:00 PM

Visibility: N/A

Pressure: 30.36 "Hg

Humidity: 100%

Dew point: 54 °F

Location of BilbaoLocation

Historic Weather in Bilbao — Graph


Bilbao temperature yesterday

Maximum temperature yesterday: 57 °F (at 7:02 PM)
Minimum temperature yesterday: 52 °F (at 9:00 AM)
Average temperature yesterday: 55 °F

Past Weeks' High & Low Weather Summary

High73 °F (Nov 15, 2:30 PM)100% (Nov 13, 5:00 PM)30.57 "Hg (Nov 13, 5:00 PM)
Low37 °F (Nov 23, 8:30 AM)38% (Nov 15, 2:30 PM)29.95 "Hg (Nov 21, 5:00 AM)
Average55 °F86%30.26 "Hg
* Reported Nov 13 11:00 AM — Nov 28 11:00 AM, Bilbao, Weather by CustomWeather, © 2015

Note: Actual official high and low records may vary slightly from our data, if they occured in-between our weather recording intervals... More about our weather records


Bilbao weather history for previous 24 hours

Time TempWeatherWind HumidityBarometerVisibility
11:00 AM
Sat, Nov 28
52 °FPartly sunny.1 mph100%30.36 "HgN/A
10:30 AM52 °FPartly sunny.No wind100%30.36 "HgN/A
10:00 AM50 °FLight rain. Partly sunny.1 mph100%30.36 "Hg4 mi
9:30 AM50 °FLight rain. Partly sunny.1 mph100%30.33 "Hg4 mi
9:00 AM50 °FRain. Partly sunny.2 mph100%30.33 "Hg2 mi
8:30 AM50 °FLight rain. Partly sunny.2 mph100%30.30 "Hg4 mi
8:00 AM50 °FLight rain. Partly cloudy.5 mph100%30.30 "Hg3 mi
7:30 AM50 °FRain. Passing clouds.5 mph100%30.30 "Hg2 mi
7:00 AM52 °FLight rain. Partly cloudy.3 mph100%30.27 "Hg2 mi
6:30 AM52 °FLight rain. Partly cloudy.12 mph100%30.27 "Hg2 mi
5:30 AM54 °FLight rain. Passing clouds.6 mph100%30.21 "Hg3 mi
5:00 AM54 °FLight rain. Passing clouds.3 mph100%30.21 "Hg3 mi
11:30 PM
Fri, Nov 27
55 °FFog.5 mph100%30.12 "Hg3 mi
11:00 PM57 °FPartly cloudy.10 mph100%30.15 "Hg5 mi
10:54 PM57 °FPartly cloudy.12 mph100%30.15 "Hg5 mi
10:30 PM55 °FLight rain. Partly cloudy.7 mph100%30.15 "Hg2 mi
10:04 PM55 °FRain. Partly cloudy.5 mph100%30.12 "Hg2 mi
9:30 PM55 °FPartly cloudy.6 mph100%30.12 "Hg5 mi
9:00 PM55 °FPartly cloudy.14 mph100%30.12 "Hg4 mi
8:56 PM55 °FPartly cloudy.14 mph100%30.12 "Hg4 mi
8:30 PM55 °FLight rain. Fog.14 mph100%30.12 "Hg3 mi
8:00 PM57 °FLight rain. Fog.6 mph100%30.12 "Hg3 mi
7:30 PM57 °FLight rain. Partly cloudy.2 mph100%30.12 "Hg4 mi
7:02 PM57 °FLight rain. Partly cloudy.3 mph100%30.12 "Hg4 mi
6:30 PM55 °FPartly cloudy.3 mph100%30.12 "Hg1 mi
6:00 PM55 °FPartly cloudy.No wind100%30.12 "Hg1 mi
5:30 PM55 °FDrizzle. Broken clouds.No wind100%30.09 "Hg1 mi
5:00 PM55 °FDrizzle. Fog.No wind100%30.12 "Hg1 mi
4:52 PM55 °FDrizzle. Fog.No wind100%30.12 "Hg1 mi
4:30 PM55 °FBroken clouds.1 mph100%30.09 "Hg5 mi
4:00 PM55 °FBroken clouds.1 mph100%30.09 "Hg5 mi
3:30 PM55 °FBroken clouds.No wind100%30.09 "Hg5 mi
3:00 PM55 °FBroken clouds.No wind100%30.12 "Hg5 mi
2:56 PM55 °FBroken clouds.No wind100%30.12 "Hg5 mi
2:30 PM55 °FDrizzle. Fog.1 mph100%30.12 "Hg3 mi
2:00 PM54 °FDrizzle. Broken clouds.2 mph100%30.12 "Hg1 mi
1:30 PM55 °FDrizzle. Broken clouds.No wind100%30.15 "Hg5 mi
1:00 PM54 °FDrizzle. Broken clouds.2 mph100%30.15 "Hg1 mi
12:57 PM54 °FDrizzle. Broken clouds.2 mph100%30.15 "Hg1 mi
12:30 PM55 °FDrizzle. Broken clouds.No wind100%30.15 "HgN/A
12:00 PM55 °FBroken clouds.1 mph100%30.18 "HgN/A
Weather by CustomWeather, © 2015

See weather overviewHow to use our weather pages